Friday, October 24, 2014
23:56 UTC
  |  Log In   |  Register Free
Airport Search:

Hampton Roads Executive Airport
(KPVG)

Hampton Roads Executive Airport Diagram
No Airport Diagram Available

FAA data valid effective September 18, 2014 - November 13, 2014 (unless otherwise noted).

 
 
 
 
 
 
 
 
 
 
 
 
 
 

Current Aviation Weather for Hampton Roads Executive Airport (KPVG)

The most recent METAR observation for KPVG was updated at: 2316
METAR Summary (Translated METAR)
KPVG
242255Z AUTO 29003KT 10SM CLR 09/07 A2995 RMK AO1
KCPK
242255Z AUTO 00000KT 10SM CLR 15/11 A2994 RMK AO2
(9.2 nm SE from KPVG)
KSFQ
242255Z AUTO 00000KT 10SM 13/09 A2994 RMK AO2 T01300093
(9.4 nm SW from KPVG)
TAF
No TAF information found within 50 nm of KPVG
  Airport Weather Conditions for KPVG

 Current Weather at PVG
48° F
Fair
West winds at 3.5 mph
PVG NOAA Radar

Pressure: 29.95 in
Humidity: 87%
Wind: West at 3.5 MPH (3 KT)
Dew Point: 44.6°F
Visibility: 10.00 mi


Airport Weather Forecast for KPVG

Translated METAR and TAF for KPVG
Translated METAR for KPVG (2351 UTC 24 October 2014)
found at http://aviationweather.gov/adds/metars/
 
METAR text: KPVG 242335Z AUTO 28004KT 10SM CLR 09/07 A2996 RMK AO1
Conditions at: KPVG (NORFOLK/HAMPTON , VA, US) observed 2335 UTC 24 October 2014
Temperature: 9.0°C (48°F)
Dewpoint: 7.0°C (45°F) [RH = 87%]
Pressure (altimeter): 29.96 inches Hg (1014.6 mb)
Winds: from the W (280 degrees) at 5 MPH (4 knots; 2.1 m/s)
Visibility: 10 or more miles (16+ km)
Ceiling: at least 12,000 feet AGL
Clouds: sky clear below 12,000 feet AGL
Weather: automated observation with no human augmentation;
there may or may not be significant weather present at this time
Translated TAF for KPVG

There is no translated TAF available for this airport

Find All Airport Services Find A Hotel Find A Rental Car Find A Golf Course Find A Restaurant $100 Hamburger



FBO's on the Field
FBO Company Facility Photos Services Transportation Aviation Fuel Prices: Prices include tax
Catering Weather Repair Courtesy Rental Type 100LL JetA JetA+ MOGAS 8087
 
Hampton Roads Executive Airport

This FBO has not yet been rated
FS:Shell
Last Updated: Oct-14
Login to update fuel prices
SS:
Contact Hampton Roads Executive AirportMore FBO Information
 
Add another FBO Facility Photos Catering Weather Repair Courtesy Rental Type 100LL JetA JetA+ MOGAS 8087
Services Transportation Aviation Fuel Prices: Prices include tax


model-print
model-print
model-print
model-print